Location: Godiavel Galaoual
(15.2485°N, 12.6604°W)
Time: 05:12:30
(UTC+00:00)

Envisat - Pass Details

Date: 03 December 2021
Orbit: 764 x 766 km, 98.2° (Epoch: 28 January)

Event Time Altitude Azimuth Distance (km) Brightness Sun altitude
Rises 04:38:42 0° 37° (NE) 3,223 6.5 -33.5°
Reaches altitude 10° 04:41:40 10° 55° (NE) 2,296 5.9 -32.8°
Maximum altitude 04:45:09 19° 99° (E) 1,767 5.5 -32.0°
Drops below altitude 10° 04:48:38 10° 143° (SE) 2,293 6.1 -31.2°
Sets 04:51:34 0° 160° (SSE) 3,217 6.7 -30.5°
